Station 44065 (LLNR 725) - New York Harbor Entrance - 15 NM SE of Breezy Point , NY Image indicating link to RSS feed of recent meteorological observations for station 44065

NY Harbor Approach (Ambrose Light)


Conditions at 44065 as of
(7:00 pm EDT)
2300 GMT on 05/30/2024:
     

Click on the graph icon in the table below to see a time series plot of the last five days of that observation.

5-day plot - Wind Direction Wind Direction (WDIR): S ( 180 deg true )
5-day plot - Wind Speed Wind Speed (WSPD): 1.9 kts
5-day plot - Wind Gust Wind Gust (GST): 1.9 kts
5-day plot - Atmospheric Pressure Atmospheric Pressure (PRES):29.98 in
5-day plot - Pressure Tendency Pressure Tendency (PTDY):+0.04 in ( Rising )
5-day plot - Air Temperature Air Temperature (ATMP): 66.9 °F
5-day plot - Water Temperature Water Temperature (WTMP): 64.9 °F
5-day plot - Dew Point Dew Point (DEWP): 50.2 °F
5-day plot - Wind Speed at 10 Meters Wind Speed at 10 meters (WSPD10M): 1.9 kts
5-day plot - Wind Speed at 20 Meters Wind Speed at 20 meters (WSPD20M): 1.9 kts
5-day plot -  Wind Speed, Wind Gust and Atmospheric Pressure Combined plot of Wind Speed, Gust, and Air Pressure
Supplemental Measurements
Highest 1-minute Wind Speed
Time (EDT)5-day plot - 1-Minute Wind Speed WSPD 5-day plot - 1-Minute Wind Direction WDIR
6:55 pm 1.9 kts-
Previous observations
TIME
(EDT)
5-day plot - Wind Direction
WDIR
 
5-day plot - Wind Speed
WSPD
kts
5-day plot - Wind Gust
GST
kts
5-day plot - Wave Height
WVHT
ft
5-day plot - Dominant Wave Period
DPD
sec
5-day plot - Average Wave Period
APD
sec
5-day plot - Mean Wave Direction
MWD
 
5-day plot - Atmospheric Pressure
PRES
in
5-day plot - Pressure Tendency
PTDY
in
5-day plot - Air Temperature
ATMP
°F
5-day plot - Water Temperature
WTMP
°F
5-day plot - Dew Point
DEWP
°F
5-day plot - Salinity
SAL
psu
5-day plot - Visibility
VIS
nmi
5-day plot - Tide (above MLLW)
TIDE
ft
2024-05-30 06:50 pmSSE 1.9 1.9 1.6 106.7ESE29.98- 67.1 64.9 50.2---
2024-05-30 06:40 pm S 1.9 1.9----29.98- 66.7 65.1 50.4---
2024-05-30 06:30 pmSSW 3.9 3.9----29.97- 66.6 64.9 50.4---
2024-05-30 06:20 pmSSW 3.9 3.9 1.3 106.1 E29.97- 66.4 65.1 50.5---
2024-05-30 06:10 pm S 1.9 3.9----29.97- 66.4 65.3 51.1---
2024-05-30 06:00 pm S 3.9 3.9----29.97+0.02 66.2 65.3 51.8---
2024-05-30 05:50 pm S 1.9 3.9 1.6 106.0ESE29.97- 66.6 65.1 50.0---
2024-05-30 05:40 pmSSW 1.9 3.9----29.97- 66.2 64.9 50.4---
2024-05-30 05:30 pm SW 3.9 5.8----29.96- 65.7 65.1 51.4---
2024-05-30 05:20 pm SW 3.9 5.8 1.3 85.5ESE29.96- 66.0 64.8 52.2---
2024-05-30 05:10 pm SW 1.9 3.9 1.3-5.5ESE29.96- 66.7 64.8 50.0---
2024-05-30 05:00 pm- 0.0 1.9----29.96+0.02 66.6 64.8 48.2---
2024-05-30 04:50 pmWNW 1.9 3.9 1.6 85.0 SE29.96- 66.6 64.9 48.0---
2024-05-30 04:40 pm N 3.9 7.8----29.96- 66.6 64.8 45.9---
2024-05-30 04:30 pm N 3.9 5.8----29.96- 66.4 64.8 48.2---
2024-05-30 04:20 pm NW 3.9 3.9 1.6 94.9ESE29.95- 66.4 64.8 49.3---
2024-05-30 04:10 pmWNW 3.9 5.8 1.6-4.9ESE29.95- 66.0 64.8 48.7---
2024-05-30 04:00 pmWNW 3.9 3.9----29.95+0.00 66.0 64.8 49.8---
2024-05-30 03:50 pmWNW 3.9 5.8 1.6 84.8ESE29.95- 65.7 64.6 50.0---
2024-05-30 03:40 pm NW 3.9 5.8----29.95- 65.3 64.6 51.1---
2024-05-30 03:30 pmWNW 3.9 5.8----29.95- 65.3 64.6 51.4---
2024-05-30 03:20 pm NW 3.9 5.8 1.6 104.4 SE29.95- 65.3 64.4 52.2---
2024-05-30 03:10 pm NW 1.9 5.8----29.95- 65.1 64.4 51.6---
2024-05-30 03:00 pm W 3.9 5.8----29.95+0.00 64.9 64.4 52.3---
2024-05-30 02:50 pm NW 5.8 7.8 1.6 84.7ESE29.95- 64.8 64.4 52.7---
2024-05-30 02:40 pmNNW 5.8 7.8----29.95- 64.8 64.6 51.8---
2024-05-30 02:30 pm N 5.8 7.8----29.95- 64.6 64.2 51.6---
2024-05-30 02:20 pm N 3.9 7.8 1.6 74.7 SE29.94- 64.2 64.2 51.8---
2024-05-30 02:10 pm N 3.9 5.8 1.6-4.7 SE29.95- 64.0 64.4 52.0---
2024-05-30 02:00 pm N 3.9 5.8----29.94-0.01 63.9 64.2 51.8---
2024-05-30 01:50 pm N 3.9 5.8 2.0 104.5ESE29.95- 63.9 64.2 52.2---
2024-05-30 01:40 pm N 5.8 7.8----29.95- 63.7 64.0 53.1---
2024-05-30 01:30 pm NW 7.8 9.7----29.95- 63.5 64.2 52.9---
2024-05-30 01:20 pm NW 7.8 9.7 2.0 84.3 SE29.95- 63.3 64.0 52.7---
2024-05-30 01:10 pmNNW 9.7 11.7 2.0-4.3 SE29.95- 63.1 63.9 52.3---
2024-05-30 01:00 pm NW 9.7 11.7----29.95-0.01 63.0 63.7 53.4---
2024-05-30 12:50 pm NW 9.7 11.7 2.0 74.1SSE29.95- 62.8 63.9 52.9---
2024-05-30 12:40 pmNNW 11.7 13.6----29.95- 62.6 63.7 53.1---
2024-05-30 12:30 pmNNW 11.7 13.6----29.95- 62.4 63.7 52.5---
2024-05-30 12:20 pmNNW 11.7 13.6 2.3 84.3 SE29.95- 62.2 63.7 52.9---
2024-05-30 12:10 pmNNW 11.7 13.6 2.3-4.3 SE29.96- 62.1 63.7 53.4---
2024-05-30 12:00 pmNNW 11.7 15.5----29.96+0.00 61.9 63.7 53.4---
2024-05-30 11:50 amNNW 11.7 15.5 2.0 84.3 SE29.96- 61.5 63.7 53.6---
2024-05-30 11:40 amNNW 11.7 13.6----29.96- 61.3 63.7 53.4---
2024-05-30 11:30 amNNW 11.7 13.6----29.96- 61.3 63.5 53.8---
2024-05-30 11:20 amNNW 11.7 15.5 2.3 84.1 SE29.96- 61.2 63.5 53.8---
2024-05-30 11:10 amNNW 11.7 15.5 2.3-4.1 SE29.96- 60.8 63.5 53.6---
2024-05-30 11:00 am N 13.6 15.5----29.95+0.02 60.8 63.7 53.8---
2024-05-30 10:50 am N 11.7 15.5 2.6 74.1 SE29.95- 60.3 63.7 53.6---
2024-05-30 10:40 am N 11.7 15.5----29.96- 60.3 63.7 53.8---
2024-05-30 10:30 am N 13.6 17.5----29.96- 59.9 63.7 53.1---
2024-05-30 10:20 amNNW 15.5 17.5 2.6 43.9NNW29.96- 59.9 63.7 53.1---
2024-05-30 10:10 am N 15.5 19.4 2.6-3.9NNW29.96- 59.9 63.7 53.4---
2024-05-30 10:00 am N 15.5 19.4----29.96- 59.9 63.7 54.0---
2024-05-30 09:50 amNNW 15.5 19.4 2.6 43.9NNW29.96- 59.9 63.9 53.8---
2024-05-30 09:40 amNNW 17.5 19.4----29.96- 60.1 63.9 54.1---
2024-05-30 09:30 amNNW 17.5 21.4----29.96- 60.3 63.9 54.9---
2024-05-30 09:20 am NW 17.5 21.4 3.0 43.8NNW29.96- 60.3 63.9 54.9---
2024-05-30 09:10 am NW 17.5 21.4 3.0-3.8NNW29.96- 60.1 63.9 55.2---
2024-05-30 09:00 am NW 17.5 21.4----29.96- 60.1 63.9 55.4---
2024-05-30 08:50 am NW 17.5 21.4 2.6 33.7NNW29.96- 60.1 64.0 55.2---
2024-05-30 08:40 am NW 17.5 21.4----29.95- 60.1 64.0 55.2---
2024-05-30 08:30 am NW 19.4 21.4----29.94- 60.1 64.0 55.2---
2024-05-30 08:20 am NW 17.5 21.4 2.3 83.9 SE29.94- 60.1 64.0 55.4---
2024-05-30 08:10 amNNW 15.5 19.4 2.3-3.9 SE29.94- 60.1 64.0 55.6---
2024-05-30 08:00 amNNW 15.5 19.4----29.93- 59.9 64.0 55.2---
2024-05-30 07:50 amNNW 13.6 19.4 2.3 83.8 SE29.93- 59.7 64.0 55.4---
2024-05-30 07:40 am N 13.6 15.5----29.93- 59.7 64.0 55.4---
2024-05-30 07:30 am N 15.5 21.4----29.93- 59.7 64.0 55.0---
2024-05-30 07:20 am N 17.5 19.4 2.3 74.0 SE29.93- 59.9 64.0 55.2---
2024-05-30 07:10 am N 15.5 17.5 2.3-4.0 SE29.92- 60.1 64.0 55.2---
2024-05-30 07:00 amNNW 17.5 21.4----29.92+0.04 60.3 64.0 55.0---
2024-05-30 06:50 amNNW 17.5 21.4 2.3 74.0 SE29.92- 60.6 63.9 56.3---
2024-05-30 06:40 amNNW 17.5 21.4----29.91- 60.8 63.9 57.0---
2024-05-30 06:30 amNNW 17.5 21.4----29.91- 60.8 63.9 56.8---
2024-05-30 06:20 am N 15.5 19.4 2.3 84.0 SE29.91- 61.2 63.9 57.2---
2024-05-30 06:10 am NW 15.5 17.5 2.3-4.0 SE29.91- 61.5 64.0 59.0---
2024-05-30 06:00 amWNW 15.5 19.4----29.91+0.02 61.5 63.9 59.2---
2024-05-30 05:50 amWNW 15.5 17.5 2.3 84.3 SE29.91- 61.5 63.9 57.9---
2024-05-30 05:40 amWNW 15.5 17.5----29.90- 61.3 64.0 58.1---
2024-05-30 05:30 amWNW 13.6 17.5----29.90- 61.3 64.0 57.9---
2024-05-30 05:20 amWNW 13.6 15.5 2.0 75.2 SE29.89- 61.3 64.0 58.6---
2024-05-30 05:10 amWNW 13.6 15.5 2.0-5.2 SE29.89- 61.3 64.0 58.8---
2024-05-30 05:00 amWNW 13.6 17.5----29.89-0.01 61.3 64.2 59.0---
2024-05-30 04:50 amWNW 13.6 17.5 2.0 86.2 SE29.88- 61.7 64.2 59.5---
2024-05-30 04:40 amWNW 9.7 13.6----29.88- 61.9 64.2 59.5---
2024-05-30 04:30 amWNW 7.8 9.7----29.88- 61.5 64.4 58.6---
2024-05-30 04:20 am W 7.8 9.7 2.0 76.2 SE29.88- 61.3 64.4 57.7---
2024-05-30 04:10 amWNW 7.8 9.7 2.0-6.2 SE29.89- 61.7 64.4 58.6---
2024-05-30 04:00 am NW 7.8 9.7----29.88-0.02 61.9 64.6 58.1---
2024-05-30 03:50 am NW 7.8 11.7 2.0 76.3 SE29.89- 61.7 64.6 59.0---
2024-05-30 03:40 am NW 5.8 7.8----29.89- 61.7 64.6 59.2---
2024-05-30 03:30 am NW 7.8 7.8----29.89- 61.7 64.6 58.8---
2024-05-30 03:20 amNNW 3.9 7.8 2.0 86.1 SE29.89- 61.9 64.4 59.4---
2024-05-30 03:10 amNNW 1.9 3.9----29.89- 61.9 64.4 59.2---
2024-05-30 03:00 am N 3.9 5.8----29.89-0.02 61.9 64.4 59.2---
2024-05-30 02:50 am N 3.9 5.8 2.3 86.0 SE29.89- 62.1 64.4 59.2---
2024-05-30 02:40 am N 3.9 5.8----29.89- 62.1 64.4 59.0---
2024-05-30 02:30 amNNW 3.9 3.9----29.89- 62.1 64.4 59.0---
2024-05-30 02:20 am N 1.9 3.9 2.0 85.9 SE29.89- 61.9 64.4 58.6---
2024-05-30 02:10 amNNE 1.9 3.9----29.90- 62.1 64.4 58.5---
2024-05-30 02:00 amNNE 1.9 3.9----29.90-0.02 62.1 64.4 58.8---
2024-05-30 01:50 amENE 3.9 5.8 2.3 85.5 SE29.90- 62.2 64.4 59.7---
2024-05-30 01:40 amENE 5.8 7.8----29.91- 62.2 64.4 59.9---
2024-05-30 01:30 am NE 7.8 9.7----29.89- 62.2 64.2 59.5---
2024-05-30 01:20 am NE 7.8 11.7----29.89- 62.2 64.2 59.4---
2024-05-30 01:10 amNNE 7.8 9.7----29.90- 62.2 64.2 59.7---
2024-05-30 01:00 amNNE 7.8 9.7----29.91-0.02 62.4 64.0 59.9---
2024-05-30 12:50 amNNE 9.7 11.7 2.3 84.9ESE29.90- 62.6 64.0 59.5---
2024-05-30 12:40 amNNE 7.8 11.7----29.89- 62.8 64.0 59.0---
2024-05-30 12:30 am N 9.7 11.7----29.90- 62.6 64.0 59.0---
2024-05-30 12:20 am N 9.7 11.7 2.3 84.4 SE29.90- 62.6 64.0 59.5---
2024-05-30 12:10 am N 7.8 9.7 2.3-4.4 SE29.91- 62.8 64.0 59.7---
2024-05-30 12:00 amNNW 9.7 11.7----29.91+0.01 63.0 64.0 59.7---
2024-05-29 11:50 pmNNW 11.7 13.6 2.3 74.1ESE29.91- 63.0 63.9 59.5---
2024-05-29 11:40 pmNNW 11.7 13.6 2.3-4.1ESE29.91- 63.1 63.9 59.5---
2024-05-29 11:30 pm NW 11.7 15.5----29.92- 63.1 63.9 59.5---
2024-05-29 11:20 pmNNW 11.7 15.5 2.6 84.1ESE29.92- 63.1 63.9 59.2---
2024-05-29 11:10 pm NW 11.7 15.5 2.6-4.1ESE29.92- 63.0 63.9 59.0---
2024-05-29 11:00 pm NW 13.6 15.5----29.92+0.04 62.8 63.9 59.2---
2024-05-29 10:50 pm NW 13.6 17.5 2.3 84.1ESE29.91- 62.6 63.9 59.2---
2024-05-29 10:40 pm NW 13.6 19.4----29.92- 62.6 63.9 59.2---
2024-05-29 10:30 pm NW 15.5 19.4----29.92- 63.0 63.9 59.7---
2024-05-29 10:20 pm NW 15.5 19.4 2.3 74.7ESE29.91- 62.8 64.0 60.3---
2024-05-29 10:10 pmWNW 17.5 21.4 2.3-4.7ESE29.92- 62.2 64.0 60.4---
2024-05-29 10:00 pmWNW 15.5 21.4----29.92+0.04 62.2 64.0 61.0---
2024-05-29 09:50 pmWNW 15.5 19.4 2.3 84.6 E29.91- 63.0 64.0 61.3---
2024-05-29 09:40 pm W 15.5 17.5----29.91- 62.8 64.0 59.9---
2024-05-29 09:30 pmWSW 15.5 19.4----29.92- 63.7 64.2 61.5---
2024-05-29 09:20 pm SW 15.5 19.4 2.3 74.7 E29.91- 64.4 64.4 61.3---
2024-05-29 09:10 pmSSW 15.5 21.4 2.3-4.7 E29.91- 64.9 64.6 62.6---
2024-05-29 09:00 pm S 11.7 15.5----29.90+0.00 65.1 64.6 62.8---
2024-05-29 08:50 pmSSE 9.7 11.7 2.6 85.1ESE29.89- 65.1 64.6 62.4---
2024-05-29 08:40 pmSSE 11.7 11.7----29.88- 65.1 64.6 62.2---
2024-05-29 08:30 pmSSE 11.7 13.6----29.89- 65.1 64.4 62.2---
2024-05-29 08:20 pmSSE 9.7 11.7 2.6 75.0ESE29.89- 65.1 64.6 62.1---
2024-05-29 08:10 pm S 7.8 11.7 2.6-5.0ESE29.89- 65.1 64.6 62.1---
2024-05-29 08:00 pm S 9.7 11.7----29.88-0.01 65.1 64.9 61.9---
2024-05-29 07:50 pm S 9.7 11.7 2.6 75.0ESE29.88- 65.3 65.3 61.7---
2024-05-29 07:40 pm S 9.7 11.7----29.89- 65.3 65.7 61.5---
2024-05-29 07:30 pm S 9.7 11.7----29.89- 65.5 66.0 61.5---
2024-05-29 07:20 pm S 9.7 11.7 2.6 84.8ESE29.88- 65.7 65.8 61.5---
2024-05-29 07:10 pm S 11.7 13.6----29.88- 65.7 65.8 61.3---
2024-05-29 07:00 pm S 11.7 13.6----29.89-0.01 65.8 66.2 61.9---
2024-05-29 06:50 pm S 11.7 13.6 2.6 84.6ESE29.89- 66.0 66.0 61.3---

Detailed Wave Summary
for 44065 as of (6:40 pm EDT)
2240 GMT on 05/30/2024:

These wave data are displayed in rounded times.

     

Click on the graph icon in the table below to see a time series plot of the last five days of that observation.

5-day plot - Significant Wave Height Significant Wave Height (WVHT): 1.6 ft
5-day plot - Swell Height Swell Height (SwH): 1.6 ft
5-day plot - Swell Period Swell Period (SwP): 10.0 sec
5-day plot - Swell Direction Swell Direction (SwD):ESE
5-day plot - Wind Wave Height Wind Wave Height (WWH): 0.3 ft
5-day plot - Wind Wave Period Wind Wave Period (WWP): 2.4 sec
5-day plot - Wind Wave Direction Wind Wave Direction (WWD): N
5-day plot - Average Wave Period Average Wave Period (APD): 6.7 sec
Previous observations
TIME
(EDT)
5-day plot - Wave Height
WVHT
ft
5-day plot - Swell Height
SwH
ft
5-day plot - Swell Period
SwP
sec
5-day plot - Swell Direction
SwD
 
5-day plot - Wind Wave Height
WWH
ft
5-day plot - Wind Wave Period
WWP
sec
5-day plot - Wind Wave Direction
WWD
 
5-day plot - Wave Steepness
STEEPNESS
 
5-day plot - Average Wave Period
APD
sec
2024-05-30 06:10 pm 1.3 1.3 10.0 E 0.3 2.4 NNW N/A 6.1
2024-05-30 05:40 pm 1.6 1.3 10.0ESE 0.3 2.5 NNW N/A 6.0
2024-05-30 05:10 pm 1.3 1.3 8.3ESE 0.3 2.6 NNW N/A 5.5
2024-05-30 04:40 pm 1.6 1.3 8.3 SE 0.7 2.6 NNW N/A 5.0
2024-05-30 04:10 pm 1.6 1.3 9.1ESE 0.7 2.6 NNW N/A 4.9
2024-05-30 03:40 pm 1.6 1.6 8.3ESE 0.7 2.6 NNW N/A 4.8
2024-05-30 03:10 pm 1.6 1.3 10.0 SE 1.0 2.7 NNW N/A 4.4
2024-05-30 02:40 pm 1.6 1.6 8.3ESE 1.0 3.0 NW N/A 4.7
2024-05-30 02:10 pm 1.6 1.6 7.1 SE 1.0 3.0 NW N/A 4.7
2024-05-30 01:40 pm 2.0 1.6 10.0ESE 1.3 3.4 WNW N/A 4.5
2024-05-30 01:10 pm 2.0 1.6 8.3 SE 1.3 3.1 NW N/A 4.3
2024-05-30 12:40 pm 2.0 1.3 7.1SSE 1.3 3.0 NW N/A 4.1
2024-05-30 12:10 pm 2.3 1.6 7.7 SE 1.3 3.3 NW N/A 4.3
2024-05-30 11:40 am 2.0 1.6 7.7 SE 1.3 3.2 NNW N/A 4.3
2024-05-30 11:10 am 2.3 1.6 7.7 SE 1.6 3.4 NNW N/A 4.1
2024-05-30 10:40 am 2.6 1.6 7.1 SE 2.0 3.4 NNW N/A 4.1
2024-05-30 10:10 am 2.6 1.3 7.7 SE 2.0 3.7 NNW N/A 3.9
2024-05-30 09:40 am 2.6 1.6 7.1ESE 2.3 3.6 NNWVERY_STEEP 3.9
2024-05-30 09:10 am 3.0 1.6 7.7 SE 2.3 3.6 NNWVERY_STEEP 3.8
2024-05-30 08:40 am 2.6 1.6 7.7 SE 2.0 3.4 NNW N/A 3.7
2024-05-30 08:10 am 2.3 1.6 7.7 SE 1.6 3.0 NNW N/A 3.9
2024-05-30 07:40 am 2.3 1.6 7.7 SE 1.6 3.0 NNW N/A 3.8
2024-05-30 07:10 am 2.3 1.6 7.1 SE 1.6 2.9 NW N/A 4.0
2024-05-30 06:40 am 2.3 1.6 7.1 SE 1.6 2.9 WNW N/A 4.0
2024-05-30 06:10 am 2.3 1.6 7.7 SE 1.6 2.9 WNW N/A 4.0
2024-05-30 05:40 am 2.3 2.0 7.7 SE 1.3 2.5 WNW N/A 4.3
2024-05-30 05:10 am 2.0 1.6 7.1 SE 1.0 5.3 SE N/A 5.2
2024-05-30 04:40 am 2.0 1.6 7.7 SE 0.7 5.0 SSE N/A 6.2
2024-05-30 04:10 am 2.0 2.0 7.1 SE 0.7 3.8 S N/A 6.2
2024-05-30 03:40 am 2.0 2.0 7.1 SE 0.7 3.7 S N/A 6.3
2024-05-30 03:10 am 2.0 2.0 7.7 SE 0.7 3.3 S N/A 6.1
2024-05-30 02:40 am 2.3 2.0 8.3 SE 0.7 3.7 S N/A 6.0
2024-05-30 02:10 am 2.0 2.0 7.7 SE 0.7 3.4 S N/A 5.9
2024-05-30 01:40 am 2.3 2.0 8.3 SE 0.7 3.4 S N/A 5.5
2024-05-30 12:40 am 2.3 2.0 8.3ESE 1.0 3.6 SSW N/A 4.9
2024-05-30 12:10 am 2.3 2.0 7.7 SE 1.3 3.6 WSW N/A 4.4
2024-05-29 11:40 pm 2.3 1.6 7.1ESE 1.3 2.9 WNW N/A 4.1
2024-05-29 11:10 pm 2.6 2.0 7.7ESE 1.6 2.9 WNW N/A 4.1
2024-05-29 10:40 pm 2.3 2.0 8.3ESE 1.3 2.7 WNW N/A 4.1
2024-05-29 10:10 pm 2.3 2.0 7.1ESE 1.0 2.6 SSW N/A 4.7
2024-05-29 09:40 pm 2.3 2.0 8.3 E 1.3 2.5 S N/A 4.6
2024-05-29 09:10 pm 2.3 2.0 7.1 E 1.3 4.8 SSE N/A 4.7
2024-05-29 08:40 pm 2.6 2.3 7.7ESE 1.3 5.3 SSE N/A 5.1
2024-05-29 08:10 pm 2.6 2.3 7.1ESE 1.0 4.0 S N/A 5.0
2024-05-29 07:40 pm 2.6 2.3 7.1ESE 1.3 4.2 SSE N/A 5.0
2024-05-29 07:10 pm 2.6 2.3 8.3ESE 1.3 2.6 SSW N/A 4.8

Plot of wave energy versus frequency (and period)